GW1087 Weather Reports


time (UTC)temp
C
wind
direction
speed
KPH
gust
KPH
rain 1hr
cm
rain 24hr
cm
rain mn
cm
humidity
%
barometer
mb
20260510120049 15 110 0.0 0.0 0.00 0.00 0.00 92 1016.2
20260510114559 15 110 0.0 0.0 0.00 0.00 0.00 91 1016.2
20260510113021 15 110 0.0 0.0 0.00 0.00 0.00 92 1016.0
20260510111544 15 98 0.0 0.0 0.00 0.00 0.00 92 1016.0
20260510110045 14 160 0.0 0.0 0.00 0.00 0.00 92 1015.9
20260510104555 13 160 0.0 0.0 0.00 0.00 0.00 91 1015.5
20260510103053 13 160 0.0 0.0 0.00 0.00 0.00 90 1015.3
20260510101506 13 160 0.0 0.0 0.00 0.00 0.00 89 1014.9
20260510100018 13 160 0.0 0.0 0.00 0.00 0.00 88 1014.7
20260510094516 13 160 0.0 0.0 0.00 0.00 0.00 89 1014.7
20260510093048 13 160 0.0 0.0 0.00 0.00 0.00 90 1014.4
20260510091552 13 160 0.0 0.0 0.00 0.00 0.00 89 1014.3
20260510090054 13 160 0.0 0.0 0.00 0.00 0.00 89 1014.3
20260510084616 13 160 0.0 0.0 0.00 0.00 0.00 88 1014.6
20260510083020 13 160 0.0 0.0 0.00 0.00 0.00 88 1014.5
20260510081534 13 160 0.0 0.0 0.00 0.00 0.00 88 1014.3
20260510080007 14 160 0.0 0.0 0.00 0.00 0.00 87 1014.1
20260510074507 14 160 0.0 0.0 0.00 0.00 0.00 85 1013.7
20260510073007 15 160 0.0 0.0 0.00 0.00 0.00 84 1013.6
20260510071529 15 160 0.0 0.0 0.00 0.00 0.00 85 1013.6
20260510070037 15 160 0.0 0.0 0.00 0.00 0.00 83 1013.8
20260510064547 15 160 0.0 0.0 0.00 0.00 0.00 82 1014.1
20260510063034 15 160 0.0 0.0 0.00 0.00 0.00 81 1014.0
20260510061554 15 160 0.0 0.0 0.00 0.00 0.00 80 1014.1
20260510060053 15 160 0.0 0.0 0.00 0.00 0.00 81 1014.2
20260510054603 15 160 0.0 0.0 0.00 0.00 0.00 80 1014.3
20260510053021 15 160 0.0 0.0 0.00 0.00 0.00 80 1014.2
20260510051531 16 160 0.0 0.0 0.00 0.00 0.00 76 1014.0
20260510050042 16 160 0.0 0.0 0.00 0.00 0.00 75 1014.0
20260510044551 16 160 0.0 0.0 0.00 0.00 0.00 75 1013.6
20260510043113 16 160 0.0 0.0 0.00 0.00 0.00 75 1013.6
20260510041520 15 160 0.0 0.0 0.00 0.00 0.00 75 1013.3
20260510040015 16 160 0.0 0.0 0.00 0.00 0.00 75 1013.3
20260510034517 16 160 0.0 0.0 0.00 0.00 0.00 72 1013.3
20260510033034 17 160 0.0 0.0 0.00 0.00 0.00 72 1013.3
20260510031544 17 160 0.0 0.0 0.00 0.00 0.00 71 1013.0
20260510030052 17 159 0.0 0.0 0.00 0.00 0.00 72 1012.7
20260510024510 18 158 0.0 1.6 0.00 0.00 0.00 71 1012.5
20260510023023 18 210 0.0 0.0 0.00 0.00 0.00 66 1012.1
20260510021538 18 210 0.0 0.0 0.00 0.00 0.00 65 1012.0
20260510020048 19 210 0.0 0.0 0.00 0.00 0.00 65 1011.6
20260510014601 20 210 0.0 0.0 0.00 0.00 0.00 64 1011.7
20260510013009 20 210 0.0 0.0 0.00 0.00 0.00 64 1011.4
20260510011510 21 210 0.0 0.0 0.00 0.00 0.00 62 1011.4
20260510010010 21 210 0.0 0.0 0.00 0.00 0.00 59 1011.2
20260510004518 22 210 0.0 0.0 0.00 0.00 0.00 56 1011.0
20260510003032 23 176 0.0 0.0 0.00 0.00 0.00 50 1010.8
20260510001531 24 176 0.0 1.6 0.00 0.00 0.00 47 1010.7
20260510000039 25 165 0.0 0.0 0.00 0.00 0.00 46 1010.7
20260509234550 26 195 0.0 1.6 0.00 0.00 0.00 44 1010.6
20260509233006 26 239 0.0 1.6 0.00 0.00 0.00 42 1010.6
20260509231529 27 164 0.0 1.6 0.00 0.00 0.00 40 1010.6
20260509230042 28 217 0.0 3.2 0.00 0.00 0.00 36 1010.5
20260509224602 28 115 0.0 3.2 0.00 0.00 0.00 34 1010.6
20260509223046 28 179 0.0 3.2 0.00 0.00 0.00 42 1010.6
20260509221548 28 288 0.0 3.2 0.00 0.00 0.00 35 1010.6
20260509220057 28 220 0.0 4.8 0.00 0.00 0.00 36 1010.5
20260509214504 29 52 0.0 3.2 0.00 0.00 0.00 34 1010.5
20260509213005 28 231 0.0 4.8 0.00 0.00 0.00 33 1010.6
20260509211515 29 133 1.6 6.4 0.00 0.00 0.00 38 1010.6
20260509210028 28 161 0.0 8.0 0.00 0.00 0.00 35 1010.8
20260509204524 28 274 0.0 3.2 0.00 0.00 0.00 34 1010.9
20260509203033 28 257 0.0 3.2 0.00 0.00 0.00 33 1010.8
20260509201544 28 152 0.0 6.4 0.00 0.00 0.00 38 1011.3
20260509200107 28 86 0.0 3.2 0.00 0.00 0.00 36 1011.4
20260509194543 28 100 0.0 4.8 0.00 0.00 0.00 35 1011.5
20260509193045 28 267 0.0 3.2 0.00 0.00 0.00 30 1011.8
20260509191545 28 40 0.0 6.4 0.00 0.00 0.00 37 1011.9
20260509190057 28 65 1.6 6.4 0.00 0.00 0.00 32 1011.9
20260509184508 27 166 1.6 6.4 0.00 0.00 0.00 30 1011.9
20260509183029 28 70 0.0 8.0 0.00 0.00 0.00 38 1011.9
20260509181545 27 27 0.0 1.6 0.00 0.00 0.00 44 1011.9
20260509180110 27 326 0.0 4.8 0.00 0.00 0.00 39 1011.7
20260509174500 27 310 0.0 6.4 0.00 0.00 0.00 53 1011.9
20260509173019 26 161 0.0 6.4 0.00 0.00 0.00 48 1012.1
20260509171536 26 33 0.0 4.8 0.00 0.00 0.00 57 1012.3
20260509170058 25 87 1.6 6.4 0.00 0.00 0.00 57 1012.3
20260509164553 26 229 0.0 1.6 0.00 0.00 0.00 59 1012.3
20260509163111 25 104 1.6 4.8 0.00 0.00 0.00 63 1012.4
20260509161515 24 271 0.0 4.8 0.00 0.00 0.00 65 1012.4
20260509160024 23 1 0.0 4.8 0.00 0.00 0.00 63 1012.4
20260509154541 23 16 1.6 4.8 0.00 0.00 0.00 66 1012.4
20260509153045 22 89 0.0 1.6 0.00 0.00 0.00 68 1012.4
20260509151550 22 331 0.0 3.2 0.00 0.00 0.00 69 1012.3
20260509150011 21 68 0.0 3.2 0.00 0.00 0.00 76 1012.3
20260509144511 21 95 0.0 3.2 0.00 0.00 0.00 73 1012.5
20260509143046 20 80 0.0 3.2 0.00 0.00 0.00 74 1012.3
20260509141542 20 103 0.0 3.2 0.00 0.00 0.00 75 1012.3
20260509140047 20 41 0.0 1.6 0.00 0.00 0.00 75 1012.2
20260509134547 20 151 0.0 1.6 0.00 0.00 0.00 76 1012.2
20260509133052 18 160 0.0 1.6 0.00 0.00 0.00 80 1012.1
20260509131507 18 252 0.0 0.0 0.00 0.00 0.00 82 1012.0
20260509130022 17 248 0.0 0.0 0.00 0.00 0.00 83 1012.0
20260509124538 15 248 0.0 0.0 0.00 0.00 0.00 90 1012.1
20260509123054 13 248 0.0 0.0 0.00 0.00 0.00 92 1012.0
20260509121553 12 250 0.0 0.0 0.00 0.00 0.00 93 1011.9